COSMOS 1959

Satellite information

Favourite Embed

Satellite Type and Status

PAYLOADIN ORBIT

Key statistics

Satellite COSMOS 1959 at a glance.

Uptime

13558

Days in orbit

Revolutions

≈ 13.8

Per day

Orbit

LEO

Low Earth Orbit

Inclination

83.0

Latest

Satellite identification and parameters

Extended collection of information and parameters for COSMOS 1959.

Object identification

Identified? True

Debris? False

Object name: COSMOS 1959

International designator: 1988-062A

Object number (NORAD): 19324

Object ID (CCSDS): 19324

Country: COMMONWEALTH OF INDEPENDENT STATES (CIS)

Current information (Y/N): Y

RCS size: LARGE

Orbital parameters

Period: 104.627 minutes

Inclination: 82.9548 deg

SMA: 7355.105 km

Apoapsis: 1001.497 km

Periapsis: 952.444 km

RAAN: 339.0405 deg

Eccentricy: 0.00333459

Argument of periapsis: 212.9175 deg

Mean anomaly: 270.8659 deg

Mean motion: 13.76320003 rev/day

Mean motion (dot): 0.00000089 rev/day2

B* drag term: 0.000074961248 1/REarth

Two-line elements (TLE)

Creation date: Aug. 30, 2025, 3:38 a.m.

Reference frame: TEME

Reference center: EARTH

Epoch: Aug. 29, 2025, 7:42 p.m. UTC

TLE line 0: 0 COSMOS 1959

TLE line 1: 1 19324U 88062A 25241.82111807 .00000089 00000-0 74961-4 0 9993

TLE line 2: 2 19324 82.9548 339.0405 0033346 212.9175 270.8659 13.76320003863624

Live tracking on map

Real-time ground track for satellite COSMOS 1959.

In-orbit conjunctions

A list of the most updated potential collisions computed for object COSMOS 1959.

Target Orbit TCA Probability of collision Miss distance Type
THORAD AGENA D DEB SSO 2024-12-03 16:18:48 0.0006847522 295.0 (m) DEBRIS

Associated space launch

Navigation satellite providing location information for the Tsiklon-B navigation system

COSMOS 1959 was lifted into orbit during the mission ‘Kosmos-3M | Parus 63’, on board a Kosmos-3M space rocket.

The launch took place on July 18, 1988, 10:28 p.m. from 133/3 (133L).

For more information about the launch, click the button.

Launch to space Kosmos-3M | Parus 63
Kosmos-3M | Parus 63

Agency: N/A

Status: Launch Successful

Launch date: July 18, 1988, 10:28 p.m. UTC

Rocket: Kosmos-3M

Launch pad: 133/3 (133L)

Location: Plesetsk Cosmodrome, Russian Federation

...

Latest news about this satellite

There are no fresh news available about this satellite. Check back as we update our databases every day.


Newsletter sign-up

Weekly statistics, charts and insights to help you stay on top of the space industry.